GFSSGP_con_mlcape_222.txt.gz
CAPE
0 2 269 480 180 143 38 83 41 35 25 35 25 90 105 317 350 36 6 360 210 455 671 934 1289 1249 1555 1617 1591 1751 1815 1831 1856 1962 1862 1883 1704 1328 1586 1542 1440 1386 1254 1157 1053 1023 809 701 937
0 387 398 445 229 140 41 40 39 21 2 0 4 146 16 1 0 17 2 421 314 277 656 955 1137 1415 1557 1449 1699 1761 1896 2019 1918 1870 1810 1913 1678 1797 1692 1654 1616 1640 1483 1230 1080 910 885 886 809
18 239 199 227 139 34 23 34 14 0 3 97 112 185 17 0 3 3 208 365 457 567 972 1137 1386 1193 1089 1236 1494 1803 1756 1799 1795 1165 1429 1516 1667 1709 1671 1555 1573 1559 1481 735 770 818 778 739 819
129 293 319 174 25 28 32 2 0 24 64 174 117 2 1 16 5 0 322 377 546 709 560 906 1289 1174 1118 1383 1392 1769 1846 1218 1240 1402 1515 1661 1686 1703 1576 1393 1157 1127 984 833 713 479 775 623 453
134 249 175 112 48 67 30 1 89 55 157 249 155 43 0 50 2 4 19 16 611 552 494 613 1180 1150 1313 911 1320 1708 1524 1547 1613 1670 1630 1672 1510 1286 1015 753 569 484 492 575 508 754 207 584 218
278 18 78 32 78 36 23 19 122 152 133 136 90 6 10 1 5 10 17 15 4 115 597 491 1162 1231 1322 895 1290 1539 1386 1287 1329 1188 1158 1058 875 857 922 1017 1146 1212 1245 1478 896 72 59 148 33
279 35 63 32 13 50 29 31 57 4 172 7 1 0 1 8 9 10 0 17 0 17 41 559 670 745 711 921 1148 1324 1313 1303 1192 1120 1061 1022 1234 1300 1256 1245 1085 1201 1307 1432 323 260 346 95 74
388 55 91 64 53 58 76 65 66 23 172 51 15 0 0 1 7 0 6 0 0 0 168 500 417 573 529 618 621 683 1085 1070 965 998 999 1084 1332 1199 1140 910 811 1303 1395 1599 1588 959 621 524 670
305 23 12 43 170 234 319 198 28 175 232 190 211 0 0 0 0 0 1 0 0 12 230 81 170 135 193 107 376 674 820 990 1238 980 992 1322 1797 1776 1424 1249 1180 1356 1430 1467 1547 1190 626 662 346
0 26 2 75 27 298 431 333 179 373 308 96 18 0 0 0 0 0 0 0 0 3 12 0 9 100 139 512 655 1053 1072 1426 1574 1343 1327 1705 1938 1550 920 563 1093 1515 1542 1689 1569 1157 673 805 674
9 58 1 17 25 183 397 419 236 283 265 75 2 0 0 0 0 0 0 0 0 0 1 0 65 164 376 770 1265 1140 1186 1728 1582 1680 1842 1809 1508 1051 1008 1170 1058 3 685 905 1729 1497 1155 1058 984
24 3 0 1 201 237 287 540 433 210 149 125 6 0 0 0 0 0 0 0 0 0 1 6 127 200 576 499 710 925 908 1258 1311 594 779 1939 827 516 680 117 105 8 742 0 200 1836 2094 1677 1441
29 3 1 9 107 360 187 517 311 170 189 188 25 0 0 0 0 0 0 0 0 0 0 0 245 300 659 274 314 625 931 1010 1049 0 547 919 40 933 500 450 609 717 638 129 920 1121 407 739 1463
37 36 2 32 277 31 111 171 362 480 324 329 55 0 0 0 0 0 0 0 0 0 0 0 611 560 988 956 619 680 515 522 1113 1506 1823 1642 1203 1497 1974 1748 1281 905 1695 1325 1293 1227 421 665 1323
38 34 20 6 195 172 104 91 0 74 446 326 198 27 0 0 0 0 0 0 0 0 1 388 508 666 1234 563 900 1231 680 1023 1046 1520 1687 1930 1588 1905 2336 859 782 1139 1349 1183 1173 1282 1310 1382 920
0 186 70 66 67 43 1 95 21 81 116 425 309 115 5 0 0 0 0 0 0 0 215 325 340 678 962 614 1102 1451 791 812 1120 1387 1694 1730 1807 1498 2663 980 842 498 1000 645 398 444 359 979 811
5 10 162 39 10 12 14 27 9 127 244 485 430 298 148 2 0 0 0 0 0 0 222 317 655 781 716 799 980 1093 1071 1109 1185 1027 1573 1661 1424 1869 2113 1350 1635 328 44 254 1064 734 655 1066 734
2 51 187 31 0 17 19 2 0 129 359 325 419 500 380 47 0 0 0 0 0 0 262 457 777 686 1065 575 1486 774 963 1228 755 1102 1467 1715 1116 1497 1770 963 1706 1329 218 220 965 1273 1106 1225 897
0 8 72 22 0 14 3 23 0 236 428 555 415 438 512 175 3 1 0 0 0 0 266 765 765 1057 1217 1483 834 183 847 568 1638 1722 1399 1005 1212 1622 1904 1494 1448 826 575 967 783 666 446 725 1284
0 4 82 95 16 14 11 18 1 164 345 438 660 588 369 320 61 31 24 0 0 0 320 852 1168 812 1432 809 937 808 810 558 1373 1175 1216 1004 1357 1907 2386 2202 2056 2360 2055 1775 235 164 161 0 99
4 21 67 2 25 40 138 163 84 385 341 474 502 744 660 410 202 91 95 1 0 0 251 911 1202 1143 1086 1195 907 1225 1910 1205 1457 1095 1071 1247 2040 2057 1813 1880 2527 2194 2005 1040 167 39 0 0 0
5 31 4 65 2 42 17 45 461 525 300 315 546 690 802 635 457 334 223 161 4 0 93 738 1126 1574 923 1657 799 1264 1272 1286 1154 918 1476 1281 1725 2056 1972 2133 2368 2191 1799 1518 679 0 1 0 0
3 20 0 2 28 36 27 16 16 180 450 267 323 735 732 835 667 404 410 366 157 0 0 505 874 1840 811 1518 1341 1137 1469 930 995 1505 1450 1337 1684 1800 1968 2556 2543 2606 2386 1521 1365 93 0 0 0
0 3 22 23 32 44 39 47 58 154 159 269 296 539 669 847 830 673 572 501 360 7 0 99 673 1674 1319 1353 1605 1219 983 1500 948 1434 921 1744 1497 1864 2061 2399 2585 2783 2810 2677 1517 879 145 0 0
0 22 32 48 37 27 47 29 56 13 0 51 310 451 569 963 927 886 695 682 498 203 0 2 884 1249 1531 1313 1667 2146 1312 1434 1695 1740 1146 1191 1549 1728 1855 2771 2741 2879 2978 2892 2419 1445 896 621 3
16 28 32 38 34 27 10 15 78 12 18 111 212 363 585 520 775 903 896 796 665 533 64 56 1140 1183 1515 1882 1192 1860 1682 1705 1738 1225 1203 1446 968 1482 2409 2508 2862 3305 2856 2839 2951 2309 1493 923 721
0 41 18 39 54 54 32 6 51 63 3 4 131 299 177 422 385 825 962 924 851 641 662 152 1280 1465 1843 1715 1610 1630 1802 1727 1739 1681 1304 1808 1256 2119 2502 2261 2843 2834 3001 3020 2888 2958 2198 1610 1334
0 1 4 12 24 8 21 13 4 34 32 41 4 19 72 50 1 207 1000 1071 961 801 732 738 1196 1606 1700 1890 1973 1978 1550 1668 2196 1889 2018 1293 1467 1861 2258 2208 2484 2654 3053 3031 2852 3157 2893 2170 2113
0 0 7 38 41 9 17 3 0 0 0 1 17 57 0 4 48 589 870 1229 1078 903 698 740 973 1697 1948 1974 2152 2136 2164 1825 1618 2295 2769 1394 1797 1614 2566 2101 2405 2629 2758 2992 3154 2609 3202 3002 2647
0 0 3 6 3 24 0 0 11 0 0 20 51 18 0 0 2 662 1105 1302 1215 1029 801 712 695 1641 1721 1845 1889 2039 2256 2038 1477 1799 2505 2592 1655 2919 1880 2796 2446 2791 2821 2921 3178 3063 2465 2352 2643

GFSSGP_con_mlcape_225.txt.gz
CAPE
0 0 37 321 139 103 47 33 32 31 15 35 41 73 15 68 93 0 459 492 434 568 915 1324 1121 1661 1621 1718 1857 1861 1891 1886 1937 1918 1917 1604 1530 1360 1379 1388 1332 1212 1070 1018 978 775 871 1081 1334
0 23 380 181 124 36 44 48 10 1 20 35 0 0 0 0 3 227 268 387 297 639 847 1181 1325 1559 1455 1742 1791 1918 2051 2064 2061 1866 1909 1921 1929 1680 1614 1452 1346 1233 1172 1104 1047 998 963 948 1173
6 569 66 131 89 25 10 16 5 17 74 163 39 0 0 7 18 179 105 201 521 713 684 1089 1354 1331 1594 1639 1825 1752 1875 1549 1469 1852 1708 1879 1836 1793 1423 1398 1443 1529 1209 1153 1001 940 938 953 792
62 311 265 83 50 32 7 0 17 128 20 0 0 7 0 18 107 177 284 415 637 731 852 1290 761 1227 1533 1631 1677 1765 1641 1256 1334 1495 1688 1909 1851 1595 1446 1321 1199 1172 857 665 533 971 721 723 571
69 209 87 61 58 22 1 23 164 197 120 0 0 0 3 8 51 183 313 510 447 316 741 1128 1132 1329 1108 1435 1729 1669 1659 1717 1758 1781 1767 1614 1417 1275 1105 958 824 660 610 543 821 590 921 599 726
169 5 67 52 49 22 35 108 89 187 88 0 1 0 0 0 50 98 388 364 249 120 616 971 1192 1253 814 1407 1738 1370 1387 1493 1487 1454 1359 1079 794 559 632 850 1021 1123 1250 1069 540 100 396 54 546
295 20 18 55 33 19 91 107 111 78 72 0 0 0 0 0 0 9 315 238 378 152 472 845 1018 1140 775 1101 1332 1422 1134 1119 1126 1170 1083 1024 1069 1159 1216 1130 1109 1218 1386 1104 155 255 191 127 377
267 144 28 70 110 66 25 5 126 72 3 0 0 0 0 1 0 2 1 0 0 7 244 244 349 276 415 633 839 785 1137 1148 1110 1118 1200 1174 1408 1308 1009 677 651 1241 1445 1735 1214 757 582 131 397
104 94 20 8 264 234 175 38 4 110 1 0 0 0 0 0 0 0 0 0 0 165 450 121 339 279 83 79 361 693 1025 976 1099 1197 1035 1206 1176 1188 1247 741 1015 1279 1507 1709 1095 847 621 583 535
64 52 8 5 30 228 231 70 134 233 145 0 0 0 0 0 0 0 0 0 0 204 66 49 132 131 64 74 237 613 882 1156 639 145 836 1110 1199 1016 1022 1529 1623 1372 1162 1367 1404 383 682 866 680
62 62 39 8 126 167 289 59 134 260 43 0 0 0 0 0 0 0 0 0 0 4 0 0 20 49 76 504 534 997 1131 479 0 328 691 901 959 606 668 47 0 0 211 782 1153 1110 854 762 395
47 65 4 47 163 154 251 207 251 193 55 0 0 0 0 0 0 0 0 0 0 0 0 0 39 68 339 816 902 985 1031 1242 766 599 900 398 1 0 486 8 0 11 79 98 881 1247 1145 1023 922
57 34 45 167 221 140 263 214 339 283 34 0 0 0 0 0 0 0 0 0 0 0 0 0 78 234 441 439 482 810 946 1173 172 377 693 364 595 518 211 0 0 345 460 50 307 1140 1474 1207 1394
40 29 45 186 22 9 182 144 80 312 19 0 0 0 0 0 0 0 0 0 0 0 0 58 274 416 319 636 533 489 580 1004 0 675 1104 1185 1156 1234 210 180 238 733 514 672 833 747 152 289 1027
38 39 72 48 26 2 4 4 18 8 86 2 0 0 0 0 0 0 0 0 0 0 0 395 397 966 496 644 303 711 660 1308 1170 1424 1510 1510 1643 1864 1748 643 747 885 786 870 1305 891 569 633 884
0 50 52 36 66 33 3 1 43 2 68 84 0 0 0 0 0 0 0 0 0 0 6 281 351 562 450 234 505 854 853 763 644 920 1075 1589 1347 1700 777 224 355 1204 1837 1437 480 1457 746 798 687
0 10 118 81 75 33 4 0 0 0 9 247 95 4 0 0 0 0 0 0 0 0 91 140 407 172 203 437 778 954 1326 991 1041 1367 1225 1525 1416 1603 694 332 175 9 116 499 663 801 680 543 636
0 119 202 40 11 36 0 0 0 0 17 213 289 164 14 0 0 0 0 0 0 0 7 284 473 188 292 255 635 1157 599 1157 1247 1468 1362 1309 1254 1562 1057 1059 809 0 1 480 700 544 981 969 684
0 0 178 38 85 18 0 0 0 1 40 87 373 293 217 1 0 0 0 0 0 3 0 414 557 209 699 151 934 162 503 1036 1219 1123 844 932 1094 2259 2166 1070 541 437 213 479 467 304 223 252 605
0 0 92 57 57 0 0 5 13 0 24 43 197 392 316 50 0 0 0 0 0 0 0 712 482 776 264 590 747 187 349 1323 1033 647 522 945 1450 1920 1801 1933 1708 1340 398 69 18 0 1 0 10
0 0 119 64 112 57 4 1 40 2 34 141 271 315 518 205 10 8 0 0 0 0 0 827 689 583 514 494 799 1219 1594 1137 731 755 593 1019 1443 1370 1475 1956 2074 1949 739 0 1 0 0 0 0
0 0 15 57 44 22 43 1 67 18 9 186 107 108 482 373 57 40 0 0 0 5 26 737 838 606 355 1013 853 670 1163 823 673 520 649 1021 1689 1953 2156 1908 1531 1559 650 122 0 0 0 0 0
0 0 0 45 1 0 18 19 63 116 43 107 207 360 521 465 131 51 26 0 0 0 110 601 1045 612 285 936 1456 961 1655 947 951 792 977 914 1454 1648 2029 1997 2151 1560 1219 989 73 0 0 0 0
0 0 0 3 7 0 0 41 1 186 311 253 338 704 801 556 328 166 92 2 0 0 139 560 1021 1024 336 660 1234 1578 889 1188 1112 1168 1034 1120 1176 1581 2114 2361 2181 2105 1608 897 136 0 0 0 0
0 0 0 0 0 0 13 2 99 190 240 88 128 952 986 800 580 387 197 231 16 0 66 505 762 1115 651 578 1106 1484 883 1085 1365 1168 1324 1077 659 1491 2083 1955 2388 2374 2307 1604 1044 695 65 0 0
0 0 0 1 0 22 16 5 20 99 86 48 133 345 977 957 785 565 433 440 263 3 0 363 561 1014 830 658 1005 1361 1507 1339 1492 1125 882 945 1129 1278 2089 1995 2450 2688 2416 2061 2010 809 702 368 1
0 0 0 0 0 37 35 18 132 116 38 129 317 3 805 941 942 735 683 578 430 138 4 127 370 693 883 822 991 1302 1616 1535 1177 1836 1124 1441 2115 1500 1794 2009 2286 2923 2535 2467 2153 2288 1637 821 715
0 0 0 5 10 21 6 9 52 66 11 13 70 321 829 510 862 954 828 750 584 438 62 50 418 374 936 931 1191 1045 1253 1604 1248 2070 1059 859 1635 2144 1954 2469 2309 2538 2766 2591 2413 2598 2273 1676 1328
0 0 0 0 0 0 0 0 0 1 0 0 6 406 419 62 48 539 1023 930 719 583 214 134 669 611 1085 921 1299 1236 831 1229 1144 1651 2066 1632 1050 2441 1975 1897 2093 2324 2614 2707 2600 2280 2851 2420 2132
0 0 0 0 0 0 1 0 12 0 0 0 0 0 0 87 462 809 1056 1034 918 721 715 266 988 1023 1176 1222 1309 1249 1341 861 864 1119 1688 2037 1737 1750 2032 1847 1792 2562 2340 2632 2651 2450 2525 2409 2117

GFSSGP_con_mlcape_228.txt.gz
CAPE
0 0 33 285 59 43 38 21 12 0 0 41 36 71 24 42 8 0 417 427 173 751 1319 1368 1718 1698 1761 1919 2118 2075 2155 2045 2144 2071 1945 1788 1467 1621 1650 1651 1413 1226 1223 1119 1098 1233 1496 1707 1724
0 30 318 203 35 4 20 8 8 2 0 0 1 6 23 31 280 398 374 224 406 736 1149 1417 1560 1680 1856 2013 1913 2088 2053 2100 2198 2056 1856 1938 1877 1645 1588 1387 1355 1349 1250 1120 1066 1065 1208 1419 1499
0 363 200 98 50 17 3 7 20 7 35 22 0 0 26 148 286 242 306 235 468 737 932 1468 1336 1673 1833 2069 2211 1942 1861 2087 2155 2051 2159 2008 1966 1856 1773 1782 1800 1440 1347 1220 1162 1052 1126 1218 1036
99 491 248 116 50 47 5 7 0 5 9 0 0 3 47 104 98 182 256 466 383 565 997 1356 1319 1638 1815 1760 1931 1991 1116 1524 1661 1662 2040 1959 1700 1643 1631 1535 1334 942 891 982 1080 1069 1098 987 628
83 228 89 77 44 7 10 119 86 28 7 0 0 2 40 91 49 217 416 476 349 736 711 928 1364 1539 1572 1642 1373 1273 1318 1483 1591 1750 1869 1720 1542 1283 1059 1089 1133 868 838 811 962 1031 908 970 630
102 25 34 49 15 43 146 232 107 5 0 0 0 0 26 75 108 322 344 341 275 519 862 994 1393 1069 1367 1520 1380 1528 1696 1718 1609 1537 1410 1221 1053 797 617 605 641 799 614 549 494 1017 626 905 281
192 36 4 74 70 90 118 112 39 2 0 0 0 0 52 108 160 198 160 32 131 481 601 970 1015 704 1299 1563 1196 1090 1219 1197 1088 954 811 743 789 931 1072 1171 1349 1289 883 434 328 500 492 408 472
74 1 0 30 34 56 68 41 14 0 1 0 0 0 25 56 181 156 125 1 17 362 350 413 720 549 685 1010 1194 1067 1067 1038 988 973 940 990 1325 1485 1241 746 1055 1511 1263 549 615 568 235 329 682
284 13 18 41 99 27 24 59 36 3 0 0 0 0 0 6 123 68 39 0 0 13 23 14 35 155 155 388 689 943 1213 1052 1116 1153 1282 1180 950 953 1172 686 1386 1538 1683 1415 957 860 406 395 759
84 73 25 25 14 58 140 49 39 12 0 0 0 0 0 18 3 0 0 0 69 12 0 0 16 6 4 114 426 551 912 919 625 332 906 963 929 945 1286 1424 1067 1441 1712 1360 1071 957 1131 1027 611
55 31 40 27 0 10 172 251 137 3 0 0 0 0 0 0 0 0 0 0 77 0 13 34 72 68 25 66 333 591 766 498 0 650 836 811 721 793 594 34 3 16 695 860 687 490 608 449 546
64 30 24 21 88 105 142 273 232 147 0 0 0 0 0 0 0 0 0 0 36 0 0 24 36 63 31 385 427 784 798 464 485 173 570 505 177 14 167 0 0 6 191 612 492 490 421 476 436
46 40 35 44 134 138 38 5 101 77 0 0 0 0 0 0 0 0 0 0 10 0 0 0 30 46 250 549 738 824 822 991 322 368 240 5 5 71 278 0 0 95 87 115 577 718 968 974 913
85 90 72 55 73 79 219 135 18 96 0 0 0 0 0 0 0 0 0 0 0 0 0 0 66 210 292 267 439 646 835 874 50 431 306 344 499 385 204 31 88 210 346 93 212 525 992 1144 790
59 112 133 74 80 17 44 32 114 42 2 6 0 0 0 0 0 0 0 0 0 0 0 59 185 335 256 507 339 421 671 633 20 568 626 506 930 714 415 290 322 377 580 651 701 755 470 257 631
6 48 18 147 63 65 46 0 2 31 89 19 0 0 0 0 0 0 0 0 0 0 14 322 586 390 410 429 522 682 342 758 768 1121 1108 1258 1344 1405 733 381 447 775 840 811 1095 1026 522 585 736
0 0 10 63 123 45 9 7 0 16 64 7 0 0 0 0 0 0 0 0 0 0 89 259 428 396 310 252 562 989 741 893 768 844 1385 1397 1180 685 641 426 549 842 1080 871 868 793 946 633 572
39 35 80 67 127 9 0 0 0 0 0 4 29 0 0 0 0 0 0 0 0 0 18 70 136 54 11 144 697 1102 1024 573 997 979 962 987 1165 1033 1265 248 0 73 273 419 403 745 905 670 500
0 0 1 46 69 10 0 0 0 0 0 0 143 0 0 0 0 0 0 0 0 0 16 134 221 0 149 318 440 601 788 753 1021 1010 768 970 1520 1994 652 372 30 7 180 333 168 274 161 222 470
0 0 16 91 37 18 0 0 0 0 11 50 200 194 19 0 0 0 0 0 0 0 80 255 302 0 129 173 612 165 878 939 1113 645 668 1260 1663 1700 834 525 185 26 35 40 0 16 44 0 61
0 0 2 14 35 82 23 0 0 0 4 28 66 205 175 1 0 0 0 0 0 0 60 500 329 61 219 117 878 1171 1230 1046 797 466 753 1191 1544 1617 1838 1723 1542 612 0 0 0 0 0 0 0
0 0 0 94 12 1 59 2 9 0 12 23 45 127 211 172 0 0 0 0 0 0 85 622 417 244 53 296 678 815 1178 846 591 368 513 1265 1377 1400 1729 1770 1646 917 0 0 0 0 0 0 0
0 0 0 82 4 2 33 13 0 36 0 0 6 193 145 224 0 0 0 0 0 0 82 716 507 302 194 554 796 504 987 689 546 349 384 1179 1429 1918 1733 1286 1426 1039 422 3 0 0 0 0 0
0 0 0 17 0 0 0 0 0 27 19 33 4 54 116 174 74 2 0 0 0 0 16 803 534 316 178 396 782 1217 1313 719 603 490 612 978 1357 1431 1943 1859 1586 1262 777 548 0 0 0 0 0
0 0 0 2 15 0 0 0 0 10 45 97 104 86 159 209 155 24 0 0 0 0 11 638 571 498 428 223 750 1075 1581 1259 802 650 774 544 997 1345 1892 1996 1845 1694 1216 562 0 0 0 0 0
0 0 0 0 0 0 0 0 0 0 49 174 173 171 246 299 305 45 10 0 0 0 28 358 573 454 428 353 528 967 1476 1356 1131 917 938 779 667 1351 1838 2067 2048 1938 1959 1225 691 367 20 0 0
0 0 0 0 0 0 0 0 46 36 59 212 211 65 88 561 495 121 67 0 0 0 25 249 528 487 428 236 421 798 1286 1791 1258 1219 1030 917 871 728 1563 1890 2199 2303 2146 1798 1528 664 649 471 82
0 0 0 0 0 0 0 4 6 118 102 80 24 182 428 801 615 293 201 183 5 0 63 247 425 482 493 194 311 640 1019 1733 1441 1471 1199 1178 1300 1594 1337 1941 1924 2646 2442 2134 2099 1882 2072 1502 941
0 0 0 0 0 0 0 0 7 68 10 36 108 49 201 635 594 613 457 326 246 15 5 247 380 442 709 417 183 506 802 1358 1529 1207 1858 1475 1250 1579 1791 1738 1845 2206 2545 2399 2301 2031 2196 2225 1946
0 0 0 0 0 0 0 0 0 63 0 0 46 42 94 197 481 330 655 503 428 158 17 62 337 380 694 620 409 260 657 867 1261 1100 1263 1799 1617 1735 2083 1777 1914 2085 2134 2538 2448 2261 2170 2251 2273

GFSSGP_con_mlcape_234.txt.gz
CAPE
7 33 2 168 88 40 3 14 7 0 0 13 0 9 147 240 11 4 366 337 552 855 1424 1587 1526 1803 2091 1928 2034 1998 1638 1696 1934 1752 1627 1563 1474 1425 1586 1624 1707 1565 1540 1640 1729 1906 1225 1502 1975
8 30 300 282 48 0 0 3 12 8 5 8 43 79 142 214 260 236 260 525 798 1024 1394 1553 1761 1970 2087 2142 1968 1961 1928 1736 1889 1709 1581 1749 1675 1514 1290 1398 1375 1270 1525 1622 1638 1470 1894 1186 1380
234 476 274 123 53 0 6 20 10 2 17 38 48 79 105 123 203 213 290 612 807 977 1439 1529 1624 1982 1952 2013 1925 1924 1788 1775 1757 1553 1649 1722 1451 1447 1458 1371 1213 1242 1278 1317 1365 1565 1711 1522 1451
418 639 373 96 7 13 36 0 13 13 7 16 19 17 118 183 212 298 409 572 701 994 1078 1649 1700 1825 1810 1870 1646 1829 1806 1824 1755 1824 1886 1721 1641 1440 1491 1267 1350 1624 1405 1296 1385 1438 1450 1405 1404
179 298 46 54 25 38 34 21 25 29 9 4 24 29 51 192 252 140 323 565 514 922 929 1394 1522 1691 1741 1362 1313 1671 1574 1587 1564 1556 1717 1625 1567 1266 1354 1229 1208 1307 1403 1400 1357 1196 1178 1194 1169
171 24 30 12 37 56 45 46 14 9 7 18 22 26 77 133 31 113 337 384 561 741 822 1433 1604 1376 1587 1608 807 1153 1338 1585 1489 1744 1677 1327 1170 1177 1173 1121 1009 1024 1131 1402 1321 1325 1234 1112 1130
108 8 16 93 40 73 67 32 0 0 0 4 26 5 45 73 68 148 264 384 564 562 840 1084 1215 1134 1081 818 998 1227 1310 1435 1450 1356 1241 1045 815 779 808 747 833 934 976 1103 1403 1187 1217 769 953
1 1 24 72 112 114 62 17 4 0 0 0 4 1 0 85 142 154 223 284 320 389 716 734 763 1077 1032 909 1204 1215 1136 1087 1020 957 956 1115 1373 1247 1068 416 565 539 740 488 931 921 930 915 1241
0 1 5 11 88 153 238 10 16 0 0 0 3 7 31 150 113 116 92 128 136 343 508 295 374 831 940 851 959 1151 1149 1223 1253 1202 1194 1304 983 583 517 576 576 657 954 804 830 949 606 1042 1309
79 0 0 25 49 121 186 105 72 0 0 4 3 59 80 58 65 87 13 0 43 108 284 126 161 367 564 862 942 992 1041 902 816 761 1061 785 766 883 1023 1171 929 1094 1110 1007 917 677 772 989 1022
213 47 22 69 61 310 173 123 46 0 0 0 0 24 61 50 58 0 0 0 0 0 88 95 35 74 117 260 505 582 713 600 113 352 695 731 914 864 407 584 1163 1215 1193 1117 946 804 759 560 370
39 25 29 39 117 201 134 142 78 91 78 4 0 27 62 56 23 0 0 0 0 0 0 0 0 0 0 1 195 323 632 157 284 580 679 423 746 354 0 32 172 656 660 521 475 368 402 139 189
68 27 19 104 92 167 52 20 64 64 22 0 21 16 40 48 0 0 0 0 0 0 0 0 0 0 0 22 198 380 195 188 245 416 532 255 181 25 0 0 30 162 134 133 153 182 181 305 406
51 35 186 281 199 62 12 10 38 2 0 0 1 1 22 34 0 0 0 0 0 0 0 0 13 29 14 99 225 431 588 727 285 351 214 52 0 45 5 0 37 278 238 104 171 217 298 423 627
110 83 162 264 145 114 31 0 0 0 0 0 0 0 0 0 0 0 0 0 0 0 0 10 22 15 11 174 365 465 587 681 52 205 129 75 0 89 106 0 10 141 77 221 243 470 600 745 879
63 85 49 106 125 59 58 0 1 0 0 0 0 0 0 0 0 0 0 0 0 0 0 0 15 39 138 267 284 427 522 519 98 204 274 335 482 513 146 68 105 304 355 413 410 592 618 531 363
0 0 3 45 73 89 78 0 90 0 0 3 0 0 0 0 0 0 0 0 0 0 0 0 27 101 140 165 222 388 351 424 210 149 765 872 694 857 398 198 289 516 645 727 831 875 727 464 441
0 0 5 0 27 33 48 0 6 3 21 2 0 0 0 0 0 0 0 0 0 0 0 0 32 137 177 162 481 668 292 243 567 726 1006 1185 935 1017 447 281 333 516 713 606 617 643 653 707 587
11 0 0 0 34 18 0 0 0 44 90 21 2 0 0 0 0 0 0 0 0 0 0 0 63 162 165 207 466 671 723 627 688 744 945 783 356 296 225 268 421 498 386 244 379 352 376 387 289
0 0 0 24 61 12 0 0 0 64 88 34 0 0 0 0 0 0 0 0 0 0 0 0 115 168 138 158 354 522 681 450 612 863 747 618 604 567 217 0 3 97 177 71 172 62 19 40 45
0 0 0 0 37 14 0 0 0 1 114 25 2 0 0 0 0 0 0 0 0 0 0 0 113 142 85 61 302 435 688 559 699 700 525 1206 1602 743 562 0 4 0 0 0 0 12 2 21 0
4 0 0 0 0 0 0 0 0 0 4 12 0 2 5 2 0 0 0 0 0 0 0 12 51 36 28 0 270 537 644 512 585 743 483 1077 1420 601 279 101 233 18 0 0 0 0 0 0 7
0 0 0 0 0 0 0 0 0 0 0 0 0 0 1 0 0 0 0 0 0 0 0 0 0 0 0 2 275 580 460 638 551 506 487 991 1292 1227 1414 1321 1424 389 0 0 0 0 0 0 0
0 0 0 0 0 0 0 0 0 0 0 0 0 0 0 11 0 0 0 0 0 0 0 0 0 21 0 0 203 502 742 673 637 542 448 890 1096 1416 1543 1507 1509 779 100 0 0 0 0 0 0
0 0 0 0 0 0 0 0 0 0 0 0 0 0 0 110 2 0 0 0 0 0 0 18 26 145 8 0 154 316 536 765 666 618 443 597 1137 1338 1687 1535 1291 1207 947 613 85 0 0 0 0
0 0 0 0 0 0 0 0 0 0 0 0 0 0 0 33 6 0 0 0 1 1 0 14 24 84 136 59 95 342 494 549 786 663 476 158 850 1083 1456 1690 1629 1421 1220 850 240 0 0 0 0
0 0 0 0 0 0 0 0 0 0 0 0 0 0 0 0 0 0 0 0 0 4 9 30 42 53 139 184 169 314 705 888 1036 905 557 326 406 682 1212 1584 1798 1689 1670 1442 1159 448 91 19 1
0 0 0 0 0 0 0 0 0 0 0 0 0 0 0 13 22 0 0 0 15 27 21 59 51 61 70 167 231 213 417 870 1061 1157 776 636 571 585 822 1248 1812 1908 1875 1847 1624 1190 948 227 310
0 0 0 0 0 0 0 0 0 0 0 0 0 0 0 23 56 65 1 0 0 1 1 19 139 73 68 106 180 184 255 594 1016 1088 1157 977 693 740 756 712 1088 1550 1868 1895 1791 1909 1705 1466 1412
0 0 0 0 0 0 0 0 0 0 0 27 115 105 66 54 85 177 49 0 0 0 0 8 144 129 121 95 156 135 183 353 717 1010 1174 1008 984 944 978 1062 1052 1395 1541 1822 1898 1810 2008 1867 1827

GFSSGP_con_mlcape_240.txt.gz
CAPE
0 13 124 869 794 431 62 43 10 5 0 3 0 228 551 530 291 290 620 688 758 1103 1302 1289 1431 1803 1687 1330 1848 1836 1486 1215 1751 1661 1670 1793 1563 1776 1816 1696 2034 2077 1857 1546 1680 1629 1749 1686 1853
1 82 852 1139 349 70 98 38 36 39 51 11 208 438 628 437 249 323 390 515 646 851 1203 1105 1475 1633 1800 1546 1297 1381 1559 1560 1500 982 1106 1414 1392 1709 1729 1877 1759 1889 1932 1744 1252 1616 1725 1691 1816
206 727 1154 767 257 38 71 46 31 70 3 163 371 493 454 251 112 192 258 446 555 647 711 1171 1456 1651 1665 1717 1692 1648 1450 1502 1229 1531 1655 1402 1424 1558 1494 1457 1672 1814 1650 1434 1426 1300 1378 1326 1553
1105 1344 1127 535 95 112 98 27 20 13 30 148 329 260 103 81 151 155 354 375 536 584 1019 1250 1646 1673 1514 1358 1495 1617 1589 1549 1517 1545 1405 1585 1643 1546 1420 1359 1520 1506 1477 1547 1419 1543 1606 1311 1473
858 850 447 270 135 97 24 42 61 66 89 129 117 0 11 208 153 133 296 295 424 409 646 1041 1433 1625 1631 1527 1549 1581 1533 1710 1624 1616 1389 1434 1298 1399 1474 1428 1446 1529 1561 1485 1456 1601 1655 1635 1390
1097 708 325 101 74 59 150 145 153 123 153 45 10 0 186 136 62 96 178 199 151 518 607 952 1333 1483 1445 1474 1387 1471 1614 1609 1550 1507 1512 1189 1520 1377 1368 1297 1575 1611 1630 1419 1589 1595 1579 1636 1282
819 240 282 207 51 184 202 101 120 114 51 29 0 0 67 65 34 64 114 157 135 235 295 595 830 1244 620 1294 1334 1521 1584 1344 1527 1328 1152 926 772 807 944 1096 1326 1586 1480 1559 1585 1362 1583 1442 1425
433 378 441 400 178 358 34 5 0 0 0 0 0 0 0 38 34 42 60 99 109 427 565 260 605 303 132 247 1196 1476 1340 1364 1139 934 790 854 889 1078 993 954 1176 1360 1619 1450 1551 1276 1516 1250 1519
8 279 291 101 244 336 60 79 0 0 0 0 0 0 0 0 2 18 32 38 89 177 117 99 309 207 471 516 722 736 987 1041 1039 1119 1262 691 740 743 582 884 948 937 1179 1300 1103 1281 1167 814 777
13 46 147 431 500 303 101 101 0 9 22 9 0 0 0 0 0 0 0 0 2 89 44 65 137 207 290 244 573 955 977 1074 1146 1309 1124 581 779 994 765 715 950 1063 998 1333 908 859 723 1168 855
284 7 31 331 496 99 138 153 0 6 52 46 23 0 0 0 0 0 0 0 0 1 1 31 203 371 477 672 884 962 1053 1129 1244 1557 1480 1192 713 794 871 644 703 763 894 477 422 579 829 934 733
171 2 15 228 493 468 513 36 10 15 95 0 0 6 0 0 0 0 0 0 0 0 0 0 189 482 621 690 861 1033 1093 1050 744 1298 1527 1317 1105 870 1017 1207 993 868 835 778 671 779 994 842 1073
191 61 78 193 466 496 379 204 183 298 0 0 0 0 0 0 0 0 0 0 0 0 0 10 165 328 448 665 886 1160 930 799 1061 1196 1500 1213 803 743 608 880 864 843 848 747 807 905 978 1260 1157
131 165 267 360 501 427 511 415 416 205 0 0 0 0 3 0 0 0 0 0 0 0 0 5 67 238 434 628 1174 1168 1053 1127 1050 1219 1068 1293 433 628 748 616 538 609 474 453 610 829 1153 1149 991
275 384 467 547 333 281 228 146 93 231 25 10 0 0 10 0 0 0 0 0 0 0 0 0 166 418 619 987 1025 1092 1167 1124 964 1177 1324 1026 825 976 807 676 460 443 640 928 1175 1320 1256 1122 982
193 239 155 533 374 362 187 151 51 30 20 18 0 0 0 27 0 0 0 0 0 0 0 91 151 433 662 813 939 1032 1169 1120 831 966 904 1084 1052 1219 802 896 1028 1050 1064 1077 1174 1309 1329 1237 970
90 88 47 90 325 324 195 204 329 43 57 98 0 1 0 14 0 1 0 0 0 0 92 271 372 420 616 1172 1039 1131 1405 1346 1038 1171 1054 1592 1454 1241 876 695 1071 1639 1225 1158 1262 1344 1472 888 915
5 31 17 3 59 133 298 183 274 135 58 300 46 2 0 0 0 0 0 2 0 10 197 420 552 599 997 1030 1185 727 848 1171 1102 1210 1476 1934 1618 1733 1264 1019 1400 1637 1179 1269 1378 1825 1364 1395 1010
1 41 37 0 18 84 115 124 118 246 90 123 243 15 0 0 0 0 0 0 4 62 209 424 606 981 1036 876 858 743 511 820 1132 1433 2081 2283 1882 1917 1780 1163 1679 1894 1514 1537 2239 1971 2075 843 1401
18 35 43 0 23 32 3 0 6 58 242 200 394 104 5 0 0 0 0 0 22 75 179 420 593 1138 1084 908 1040 1045 514 706 1076 1362 1860 1704 1785 1774 1543 1066 1383 1651 1476 1847 2217 2096 747 890 1465
29 17 61 35 8 3 0 5 0 0 180 194 510 244 83 0 0 0 0 0 0 40 141 316 643 1021 1127 863 1343 1056 1477 1205 1274 1400 1047 1147 1577 1688 1297 1497 1280 1878 1392 1019 1776 1848 1484 703 1229
44 35 29 8 13 36 0 45 0 5 90 257 348 275 156 35 0 0 0 0 0 2 62 142 621 1015 1286 1304 1050 1057 432 566 683 1115 1185 1220 1344 1895 2106 1346 1353 1536 677 693 1134 1202 1294 1053 778
8 65 27 23 18 12 0 0 37 4 23 160 347 362 288 191 3 0 0 0 0 0 0 87 450 1026 1056 1369 1003 1491 743 614 766 863 1549 1709 1892 2113 2032 1766 1923 2297 1025 789 1124 1154 983 706 476
8 23 8 10 34 25 3 0 7 7 3 23 314 411 313 357 206 3 0 0 0 0 0 46 374 924 1284 1405 1376 1324 1053 958 802 1244 1576 1350 1190 1587 2116 1957 2575 2786 1883 1229 880 1280 1276 944 709
4 35 21 16 30 22 35 0 2 0 0 1 83 392 318 354 396 214 4 0 0 0 0 0 288 870 1068 1302 1085 1256 1464 1547 1738 1846 1404 1264 1012 922 2153 2606 2964 2681 2728 2133 1382 762 614 768 449
0 7 14 16 8 8 22 0 0 0 0 0 14 155 275 243 407 462 260 52 16 18 20 82 270 780 843 985 1027 1170 1472 1380 1354 1978 1097 1392 943 929 1774 2273 2417 2580 2737 2658 2522 1396 1088 580 155
0 0 0 7 20 4 11 0 0 0 0 0 12 12 237 150 198 401 475 303 163 136 122 175 287 774 794 813 887 1144 1596 1524 1173 1474 2042 1577 1592 1374 2030 1766 1983 2367 2819 2798 2751 2053 1830 936 650
0 0 0 0 0 0 6 0 4 0 0 0 0 0 0 91 54 158 388 463 337 293 281 353 338 809 720 698 598 851 1244 1695 1589 2103 2191 1539 1721 1935 1754 2076 1992 2058 2517 2891 2962 2332 2506 2117 1641
0 0 0 0 0 0 0 0 0 0 0 0 0 0 4 40 44 100 285 272 442 390 397 502 503 643 632 736 748 777 796 1360 1790 1673 1812 2074 2229 2381 1896 2236 2385 2342 2354 2933 3261 3061 2528 2805 2453
0 0 0 0 0 0 0 0 3 0 0 44 127 551 188 72 97 149 395 353 511 554 535 577 554 546 876 991 1178 1117 804 1031 1382 1596 1610 2148 2323 2538 2435 2248 2391 2476 2547 2743 3180 3175 2753 2922 2802

GFSSGP_con_mlcape_246.txt.gz
CAPE
0 2 183 763 776 565 41 34 26 13 38 162 105 40 256 322 401 165 373 769 726 843 999 1289 1312 1292 1316 1242 1209 882 1762 1411 1551 1405 1357 1679 1741 1668 1300 1563 1092 1679 1868 1710 1660 1586 1596 1450 1268
14 297 724 877 561 102 26 76 51 49 223 223 214 27 74 81 162 295 592 668 585 652 840 924 1313 1631 1752 1661 1337 909 1459 1451 1499 1443 1537 1473 1701 1736 1659 1804 1647 1720 1905 1823 1587 1713 1453 1469 1005
45 608 179 383 469 27 16 65 42 115 339 341 194 24 15 31 66 112 457 406 483 722 971 1159 1305 1207 1373 1201 1562 1659 1223 1264 1393 1373 1642 1292 1593 1688 1687 1629 1794 1594 1395 1238 1136 1397 1735 1716 1013
652 1214 1027 188 25 58 34 19 51 139 257 120 0 0 0 58 19 46 90 144 647 507 810 1360 1320 1313 1502 1482 1409 1413 1330 1507 1508 1363 1427 1283 1374 1680 1615 1727 1591 1658 1479 1773 1676 1639 1312 578 658
971 826 391 255 69 42 35 10 46 55 161 3 0 0 2 18 4 33 108 368 497 475 746 1120 1377 1426 1482 1397 1295 1510 1502 1536 1410 1545 1570 1333 1507 1475 1620 1845 1762 1711 1717 1736 1647 1445 783 534 164
1011 202 46 94 177 43 76 51 94 136 35 0 0 0 0 1 4 33 39 224 56 278 619 927 1222 1365 1472 1475 1488 1579 1617 1449 1416 1330 1380 1391 1711 1423 1639 1649 1660 1599 1769 1733 1680 1428 1092 562 149
883 212 239 112 36 79 150 204 87 25 10 5 0 0 0 13 7 38 55 35 373 180 276 854 1105 1245 1413 1450 1478 1474 1461 1549 1404 1253 1238 1455 1496 1464 1733 1654 1507 1752 1669 1697 1677 1442 1232 431 173
807 196 237 172 342 112 140 1 3 38 13 0 0 0 0 0 4 57 85 148 106 58 135 401 806 863 1014 1254 1481 1315 1508 1280 1128 1050 1032 1089 884 1080 1408 1298 1461 1755 1595 1524 1374 964 656 101 210
338 162 46 301 339 133 37 18 0 0 0 12 2 0 0 3 7 19 57 21 78 90 179 170 89 749 848 1059 1178 1367 1108 877 693 562 717 626 520 635 869 1100 1611 1547 1580 1195 1012 966 743 772 667
536 0 24 310 338 280 241 3 0 0 2 0 0 0 0 1 14 10 46 49 75 43 98 26 86 258 345 165 703 229 579 731 898 805 658 920 1065 814 1125 796 1228 1375 951 711 765 714 686 947 859
427 54 365 571 352 372 97 69 46 18 0 0 0 0 0 0 15 14 10 61 32 1 31 11 98 312 65 550 627 625 1047 1313 778 419 545 789 878 936 921 787 633 842 600 243 135 466 895 1259 1279
259 35 564 488 349 525 447 265 308 18 2 0 0 0 0 0 8 24 8 15 21 28 63 67 145 263 629 421 648 1125 481 977 1097 865 952 819 1177 842 607 722 864 666 798 267 359 672 1025 387 189
239 198 157 621 642 724 496 343 629 0 0 0 0 0 0 2 6 25 10 23 13 20 88 262 340 486 770 110 344 582 140 498 1209 712 1024 717 1058 1105 1109 1056 841 780 1025 643 713 562 1380 866 584
112 79 277 570 690 474 309 367 676 0 0 0 0 0 0 1 1 5 2 14 5 7 229 191 593 668 1076 932 449 299 190 480 790 723 770 817 814 1063 1233 1058 934 647 676 504 699 909 1119 1239 524
78 170 403 308 217 191 401 288 471 0 0 0 0 0 0 0 0 0 0 15 1 0 148 234 333 498 1081 1238 1476 1206 1090 727 1405 1056 1403 964 718 1145 1023 1094 471 666 911 1083 1045 1307 978 810 186
99 160 230 136 240 310 285 173 431 40 0 0 0 0 0 0 0 0 0 4 3 5 159 197 220 524 941 777 1229 836 584 850 1293 1190 1154 1429 983 1339 1407 359 487 583 490 774 794 1144 1237 926 533
80 158 172 81 3 506 51 384 502 239 5 0 0 0 0 0 0 0 0 0 0 12 111 62 395 486 641 1256 846 851 1445 1210 866 1082 1187 1373 1233 1305 1404 703 689 717 1075 1166 969 1115 862 287 745
69 128 184 87 9 96 55 468 585 378 225 1 0 0 0 0 0 0 0 0 0 2 136 237 469 713 978 484 1183 1188 1051 1375 950 1116 1226 1254 1264 1395 1663 1392 845 1237 2014 660 1653 1578 1063 1044 663
83 18 3 183 62 83 50 584 601 352 150 134 0 0 1 1 0 0 0 0 0 22 283 545 836 664 1195 916 899 893 632 1442 1328 1533 1414 1774 1334 1380 1675 1516 851 1316 2292 1582 1315 526 243 1007 1288
4 0 1 16 20 6 40 117 442 416 165 344 30 1 0 6 2 0 0 0 0 72 421 491 1222 716 1369 663 919 1113 1120 1085 1931 1571 1837 2144 1614 1593 1896 1299 1068 1870 1950 1549 1243 1891 1812 1062 875
0 10 2 30 53 8 4 32 228 494 368 316 278 1 0 3 1 0 0 0 0 148 540 605 1272 699 1368 604 1169 1170 1459 1299 1177 1019 1234 1780 2201 1531 2002 1583 1843 1883 2200 1463 1783 1490 1374 1566 1447
0 9 37 56 45 65 32 0 3 325 351 390 411 194 2 0 2 0 0 0 0 252 596 783 1433 801 1168 1769 1150 985 945 1063 904 1223 1047 1083 1823 1570 1861 1494 2099 1973 1802 1828 1866 1699 1683 1379 1262
0 2 45 32 20 36 35 62 39 30 228 473 543 367 174 6 0 1 1 39 2 257 509 960 1278 1253 1051 1767 1171 1188 818 737 630 654 791 1049 1244 1698 1295 1422 1436 1606 1300 1798 1471 1838 1218 1690 935
0 0 2 37 21 26 30 20 6 109 94 261 582 672 474 329 6 0 0 24 55 240 460 970 1114 1614 1257 1608 1549 898 828 1377 742 855 1352 1059 1381 1514 1691 1499 1867 2487 2078 1315 1152 1916 1961 1517 1866
0 1 0 4 30 15 23 10 30 54 142 104 341 670 703 452 226 0 6 19 22 169 381 908 1123 1534 1353 1452 1549 1648 1209 1289 1731 1601 869 624 1554 1477 1426 1981 2388 2473 2474 2280 1392 1550 1767 2197 1378
0 0 7 22 36 40 39 10 38 25 71 25 251 479 857 552 420 12 9 25 16 82 311 704 1181 1291 1619 1837 1388 1913 1991 1712 1885 1054 680 865 991 1490 1843 2402 2405 2600 2725 2827 2588 2212 1361 993 1031
0 14 0 8 18 46 20 6 63 24 0 14 162 463 775 760 543 342 21 32 48 70 170 424 1176 1299 1697 1767 1949 1477 2096 1777 2038 1417 1262 1740 1666 2001 2519 2492 2599 2308 2364 2565 2892 2355 2084 1670 1302
0 1 9 1 1 2 7 16 0 27 1 0 14 419 563 504 605 517 277 50 65 55 163 303 996 1275 1539 1664 1992 1984 1763 1917 1910 1821 1182 1033 2099 1754 2595 2743 2155 2485 2067 2282 2458 2459 2571 2308 1850
1 0 0 6 0 1 13 1 13 59 17 0 34 326 648 650 407 639 650 176 75 54 73 120 394 1235 1542 1629 1869 1957 2065 1811 1952 1822 1921 1810 1601 2040 2372 2174 2138 2251 2159 2334 2425 2199 2309 2502 2376
0 0 0 1 2 2 0 3 65 36 26 29 6 84 270 598 614 382 697 477 158 93 56 142 221 960 1197 1517 1578 1834 2040 1967 1592 1792 2203 2505 2016 2420 2040 2498 2553 2346 2380 2196 2307 2213 1801 2307 2694